Anoka County, MN

4:34 AM CDT on October 15, 2019 (GMT -0500)
Anoka County / Blaine Airport

Weather History for KANE - August, 2019

Change the Weather History Date:

Thursday, August 15, 2019

  Actual Average Record
Temperature  
Mean Temperature 69 °F -  
Max Temperature 78 °F 75 °F 89 °F (2003)
Min Temperature 60 °F 57 °F 51 °F (2004)
Cooling Degree Days 4    
Growing Degree Days 19 (Base 50)    
Moisture  
Dew Point 59 °F    
Average Humidity 75    
Maximum Humidity 94    
Minimum Humidity 44    
Precipitation  
Precipitation 0.00 in - - ()
Sea Level Pressure  
Sea Level Pressure 29.98 in    
Wind  
Wind Speed 2 mph (SSE)    
Max Wind Speed 12 mph    
Max Gust Speed 17 mph    
Visibility 10 miles    
Events Rain    
Averages and records for this station are not official NWS values.
T = Trace of Precipitation, MM = Missing Value Source: NWS Daily Summary

Daily Weather History Graph

Daily Weather History Graph

Search for Another Location

Airport or City:

Astronomy

Aug. 15, 2019 Rise Set
Actual Time 6:14 AM CDT 8:19 PM CDT
Civil Twilight 5:41 AM CDT 8:51 PM CDT
Nautical Twilight 5:02 AM CDT 9:31 PM CDT
Astronomical Twilight 4:18 AM CDT 10:14 PM CDT
Moon 8:49 PM CDT 6:06 AM CDT
Length of Visible Light 15h 09m
Length of Day
14h 05m
Full, 100% of the Moon is Illuminated
Aug 15
Full
Aug 23
Last Quarter
Aug 30
New
Sep 5
First Quarter
Sep 13
Full

Hourly Weather History & Observations

Time (CDT) Temp. Dew Point Humidity Pressure Visibility Wind Dir Wind Speed Gust Speed Precip Events Conditions
12:15 AM 66.2 °F 59.0 °F 78% 30.06 in 10.0 mi Calm Calm - N/A   Overcast
12:19 AM 66.2 °F 59.0 °F 78% 30.06 in 10.0 mi Calm Calm - N/A   Overcast
12:37 AM 66.2 °F 59.0 °F 78% 30.05 in 10.0 mi Calm Calm - N/A   Overcast
12:55 AM 66.2 °F 57.2 °F 73% 30.05 in 10.0 mi Calm Calm - N/A   Overcast
1:16 AM 66.2 °F 59.0 °F 78% 30.05 in 10.0 mi Calm Calm - N/A   Overcast
1:36 AM 66.2 °F 57.2 °F 73% 30.05 in 10.0 mi Calm Calm - N/A   Overcast
1:59 AM 66.2 °F 57.2 °F 73% 30.05 in 10.0 mi Calm Calm - N/A   Overcast
2:16 AM 64.4 °F 59.0 °F 83% 30.05 in 10.0 mi Calm Calm - N/A   Overcast
2:36 AM 64.4 °F 60.8 °F 88% 30.04 in 10.0 mi Calm Calm - N/A   Overcast
2:56 AM 64.4 °F 62.6 °F 94% 30.04 in 10.0 mi Calm Calm - N/A   Overcast
3:15 AM 64.4 °F 60.8 °F 88% 30.04 in 10.0 mi Calm Calm - N/A   Overcast
3:19 AM 64.4 °F 60.8 °F 88% 30.04 in 10.0 mi Calm Calm - N/A   Overcast
3:37 AM 64.4 °F 60.8 °F 88% 30.04 in 10.0 mi Calm Calm - N/A   Overcast
3:56 AM 64.4 °F 59.0 °F 83% 30.04 in 10.0 mi Calm Calm - N/A   Scattered Clouds
4:16 AM 62.6 °F 60.8 °F 94% 30.04 in 10.0 mi Calm Calm - N/A   Clear
4:35 AM 62.6 °F 60.8 °F 94% 30.04 in 10.0 mi Calm Calm - N/A   Mostly Cloudy
4:58 AM 62.6 °F 60.8 °F 94% 30.03 in 10.0 mi Calm Calm - N/A   Overcast
5:16 AM 62.6 °F 60.8 °F 94% 30.04 in 10.0 mi Calm Calm - N/A   Overcast
5:36 AM 62.6 °F 60.8 °F 94% 30.04 in 10.0 mi SW 3.5 mph - N/A   Mostly Cloudy
5:56 AM 62.6 °F 60.8 °F 94% 30.04 in 10.0 mi Calm Calm - N/A   Mostly Cloudy
6:15 AM 62.6 °F 60.8 °F 94% 30.04 in 10.0 mi Calm Calm - N/A   Mostly Cloudy
6:19 AM 62.6 °F 59.0 °F 88% 30.04 in 10.0 mi Calm Calm - N/A   Mostly Cloudy
6:38 AM 64.4 °F 55.4 °F 73% 30.03 in 10.0 mi Calm Calm - N/A   Scattered Clouds
6:55 AM 60.8 °F 57.2 °F 88% 30.03 in 10.0 mi Calm Calm - N/A   Clear
6:58 AM 60.8 °F 57.2 °F 88% 30.03 in 10.0 mi Calm Calm - N/A   Scattered Clouds
7:46 AM 66.2 °F 57.2 °F 73% 30.04 in 10.0 mi Calm Calm - N/A   Scattered Clouds
8:45 AM 69.8 °F 59.0 °F 68% 30.03 in 10.0 mi SSE 3.5 mph - N/A   Scattered Clouds
9:45 AM 71.6 °F 57.2 °F 60% 30.01 in 10.0 mi South 5.8 mph - N/A   Scattered Clouds
10:45 AM 75.2 °F 55.4 °F 50% 30.01 in 10.0 mi SSE 8.1 mph - N/A   Partly Cloudy
11:45 AM 75.2 °F 55.4 °F 50% 29.99 in 10.0 mi Calm Calm - N/A   Scattered Clouds
12:47 PM 78.8 °F 55.4 °F 44% 29.97 in 10.0 mi SSE 5.8 mph - N/A   Mostly Cloudy
1:51 PM 77.0 °F 55.4 °F 47% 29.95 in 10.0 mi SSE 5.8 mph - N/A   Mostly Cloudy
2:45 PM 78.8 °F 57.2 °F 47% 29.93 in 10.0 mi SSE 5.8 mph - N/A   Mostly Cloudy
3:45 PM 78.8 °F 59.0 °F 51% 29.92 in 10.0 mi SSE 5.8 mph - N/A   Mostly Cloudy
4:45 PM 78.8 °F 60.8 °F 54% 29.90 in 10.0 mi SE 10.4 mph - N/A   Mostly Cloudy
5:45 PM 78.8 °F 57.2 °F 47% 29.88 in 10.0 mi South 10.4 mph - N/A   Mostly Cloudy
6:45 PM 77.0 °F 60.8 °F 57% 29.88 in 10.0 mi SSW 9.2 mph - N/A   Mostly Cloudy
7:45 PM 75.2 °F 60.8 °F 61% 29.87 in 10.0 mi SSW 5.8 mph - N/A   Overcast
8:45 PM 71.6 °F 62.6 °F 73% 29.85 in 10.0 mi SSE 9.2 mph - N/A   Overcast
9:45 PM 69.8 °F 60.8 °F 73% 29.85 in 10.0 mi SSE 5.8 mph - N/A   Overcast
10:16 PM 69.8 °F 62.6 °F 78% 29.85 in 10.0 mi SSE 5.8 mph - N/A   Clear
10:36 PM 69.8 °F 62.6 °F 78% 29.84 in 10.0 mi SSE 5.8 mph - N/A   Scattered Clouds
10:59 PM 69.8 °F 62.6 °F 78% 29.84 in 10.0 mi SSE 5.8 mph - N/A   Scattered Clouds
11:16 PM 69.8 °F 62.6 °F 78% 29.84 in 10.0 mi SSE 6.9 mph - N/A   Scattered Clouds
11:36 PM 68.0 °F 60.8 °F 78% 29.85 in 10.0 mi WNW 11.5 mph 17.3 mph N/A   Mostly Cloudy
11:56 PM 66.2 °F 60.8 °F 83% 29.84 in 7.0 mi NNW 4.6 mph - N/A Rain Rain